Theta_e
348 348 349 348 348 346 348 347 348 349 351 353 352 351 351 350 352 347 347 349 346 348 347 348 350 354 354 356 356 356 356 354 354
348 349 349 348 348 347 348 348 349 349 350 353 352 351 351 351 352 350 349 349 351 349 350 350 354 354 354 355 356 356 356 354 354
350 350 349 350 348 347 347 348 349 350 350 352 352 351 351 350 351 352 351 352 350 351 351 354 353 354 353 352 353 357 356 353 353
346 347 349 350 351 347 348 348 349 349 350 351 352 352 351 351 351 351 352 351 352 352 352 353 354 353 353 353 353 354 356 353 352
343 343 347 348 351 350 348 348 348 348 349 350 351 351 352 352 352 351 350 352 351 351 352 352 353 354 355 356 354 355 355 353 352
343 343 349 348 349 351 351 350 350 348 349 349 350 351 351 352 352 353 352 350 351 351 352 352 351 353 355 353 351 351 353 355 352
341 345 347 350 348 346 347 350 350 350 352 350 350 350 351 352 353 352 352 351 352 352 352 352 351 352 354 352 352 351 352 353 352
344 344 345 347 348 347 340 345 349 350 352 353 352 349 351 352 353 353 353 352 353 354 352 352 352 352 353 351 351 351 352 352 352
344 343 344 344 345 346 345 345 347 349 350 351 354 351 351 352 353 354 354 354 354 355 355 354 353 353 352 352 351 348 347 348 351
342 342 344 343 346 346 347 346 345 345 348 349 352 354 353 354 354 354 355 355 356 356 356 356 356 355 353 352 352 352 349 348 351
342 342 343 344 344 344 345 346 346 345 342 345 347 350 352 353 354 354 355 355 355 356 356 356 356 355 353 353 354 352 348 348 350
340 341 343 343 343 343 343 343 344 344 345 345 346 347 347 349 350 352 353 355 355 356 356 355 355 355 355 355 352 349 348 348 351
339 340 341 342 342 342 342 343 343 343 343 345 346 347 345 346 347 348 349 351 354 355 353 353 351 351 352 351 343 345 346 345 345
338 340 341 341 340 340 340 341 341 342 343 344 345 344 342 342 343 343 343 345 347 350 349 344 342 343 343 341 343 344 343 343 343
339 340 340 339 338 338 339 339 340 341 342 344 344 345 343 341 343 344 344 345 345 345 344 342 339 339 337 337 338 340 341 341 342
340 340 340 337 337 338 338 338 338 340 339 340 341 342 340 337 337 338 339 339 339 337 335 333 330 330 329 331 334 337 338 338 336
340 340 340 338 337 337 337 337 338 338 334 336 338 340 336 336 335 334 332 332 330 329 328 327 327 326 325 326 328 330 331 331 330
339 340 339 337 337 336 336 335 337 337 335 333 334 333 333 333 330 334 331 329 330 330 330 330 329 327 326 326 326 327 329 330 328
340 341 339 338 337 336 336 335 336 336 334 332 331 330 329 329 327 328 327 328 327 329 329 331 330 329 328 327 328 329 329 328 326
340 340 339 338 338 336 335 334 335 334 334 333 331 329 327 327 327 326 325 324 324 322 324 327 327 327 327 327 327 326 324 323 322
Wind_Speed
3 6 11 13 12 18 18 19 21 21 21 21 21 19 18 18 16 14 12 12 11 11 10 9 8 10 8 7 7 6 5 4 4
1 2 3 6 13 15 19 20 21 23 22 21 22 22 20 19 17 16 14 11 10 13 11 9 9 11 10 9 9 9 8 6 5
1 0 1 4 7 14 18 19 20 20 20 20 21 20 20 20 19 18 18 13 14 11 9 9 9 10 10 10 10 9 8 7 7
4 3 3 4 5 10 13 16 18 19 19 19 19 20 20 20 20 20 19 17 16 14 12 11 9 10 10 8 8 9 9 7 8
2 3 4 3 3 4 8 8 12 15 16 18 19 19 20 21 20 19 19 19 18 15 14 12 11 10 10 10 7 8 7 7 8
2 1 2 3 5 2 3 3 7 11 14 18 18 19 20 21 21 21 21 20 19 17 15 14 13 12 11 10 9 9 10 8 9
2 1 1 3 4 3 1 1 2 7 12 15 16 17 18 19 21 22 22 20 20 18 17 16 15 14 12 12 10 11 12 10 10
3 2 1 0 2 1 1 0 1 3 7 10 12 17 17 17 17 19 19 19 19 19 18 18 18 16 15 14 13 13 11 10 11
5 3 2 3 2 1 1 3 4 3 1 2 8 13 15 16 16 16 18 19 19 19 20 19 18 18 18 17 17 16 15 13 12
5 2 1 3 3 3 2 3 1 4 4 2 2 7 11 12 14 16 17 19 20 21 20 19 19 18 18 19 17 18 18 17 11
5 3 1 0 1 2 2 1 1 3 6 8 6 3 4 9 12 15 15 17 19 20 20 21 21 19 18 18 16 18 17 15 11
4 3 3 2 1 1 3 4 3 4 4 4 6 8 8 7 8 9 13 16 17 18 19 19 20 19 18 18 18 18 14 11 7
5 4 4 3 2 1 3 4 6 5 8 7 6 6 6 9 11 12 11 10 12 14 12 11 9 11 12 15 14 13 11 10 7
7 6 5 3 1 2 3 4 6 7 8 9 5 4 6 7 11 14 17 16 19 17 15 13 13 11 12 12 13 15 14 14 13
8 8 6 3 1 1 2 3 5 5 6 3 2 1 2 5 7 11 14 15 17 15 21 23 22 20 18 15 14 14 13 14 15
7 6 5 3 1 0 1 3 3 3 3 2 2 3 3 3 2 3 6 7 9 15 19 20 20 20 22 19 17 17 14 13 13
7 8 7 5 3 1 3 3 3 2 2 3 4 6 4 4 7 7 6 7 7 9 9 12 16 18 18 19 19 20 20 20 19
8 9 8 7 5 2 1 2 2 2 1 1 3 6 8 8 7 11 12 12 14 12 11 11 14 17 20 20 19 19 20 21 21
10 11 10 9 7 4 2 1 1 1 0 1 5 8 8 8 10 11 11 13 14 10 9 9 9 13 12 13 15 17 15 15 15
10 11 11 11 10 7 4 2 2 1 1 3 5 8 11 10 11 14 11 12 15 16 13 12 12 9 9 12 16 15 16 16 17
Wind_Direction
287 233 222 233 215 214 210 205 200 199 195 198 199 204 206 211 218 227 231 223 232 224 225 215 196 204 207 216 221 222 228 249 258
293 348 325 245 239 227 209 210 208 205 200 202 202 205 204 209 211 219 232 233 226 231 234 228 219 212 210 220 229 230 232 244 253
100 75 5 342 255 225 222 213 212 212 209 207 207 209 210 213 215 217 223 223 231 237 235 235 227 223 212 223 233 231 228 243 250
71 14 327 327 297 219 216 218 214 211 214 212 210 209 213 214 215 218 221 223 227 231 233 234 238 237 242 231 248 236 234 228 256
110 9 11 357 54 188 199 214 228 226 219 216 217 218 215 218 218 220 222 226 226 224 226 230 237 241 238 238 240 237 244 250 266
207 294 31 38 50 108 134 184 227 235 237 231 226 220 220 220 221 220 223 224 227 228 224 224 231 235 236 243 251 253 256 257 255
202 144 69 84 92 42 70 321 247 261 254 241 232 223 222 224 226 225 224 223 224 223 224 225 225 232 235 239 246 255 257 256 257
195 183 210 300 328 89 330 153 181 265 263 242 231 230 225 227 230 232 229 225 221 221 219 222 224 224 228 234 238 243 250 258 263
210 211 267 305 311 338 313 19 53 57 52 299 226 218 222 228 227 229 227 225 223 217 218 218 219 224 227 228 233 236 245 246 253
197 208 332 321 325 311 248 231 71 315 308 330 287 228 217 220 226 229 226 224 222 221 220 220 220 222 225 227 231 237 240 248 247
161 164 159 120 300 301 284 259 290 322 312 301 279 296 217 220 222 229 227 224 220 219 219 218 218 220 221 225 225 227 231 242 242
134 132 127 109 35 242 244 260 235 270 285 288 262 249 246 241 226 233 227 223 223 222 217 217 216 215 213 212 211 219 229 229 194
151 141 127 129 117 200 260 254 264 258 267 273 273 255 258 263 250 247 234 227 207 196 197 187 184 196 189 189 195 190 181 168 179
147 143 143 137 135 321 326 295 286 268 254 260 285 270 290 272 270 244 237 233 236 235 208 198 193 182 179 175 180 178 187 176 158
153 151 156 175 179 7 345 314 295 292 259 246 260 263 346 327 262 241 241 238 235 213 219 202 182 172 166 168 166 164 174 167 163
164 169 169 187 219 249 348 315 311 296 287 304 173 119 72 57 45 248 230 224 206 181 181 175 168 161 157 154 149 145 155 150 149
176 183 191 194 205 287 332 315 294 298 292 273 204 162 136 127 105 92 104 119 127 145 138 138 141 141 137 137 135 134 136 134 132
191 189 195 199 209 229 330 318 296 304 313 291 177 163 153 144 126 123 120 106 113 116 125 143 148 151 147 143 142 146 149 143 138
200 194 195 199 205 207 243 275 225 290 71 137 153 145 147 141 135 129 134 126 112 116 115 139 154 154 153 162 162 151 146 148 149
194 197 201 204 201 200 200 228 224 151 173 155 170 165 151 143 139 134 134 136 126 117 117 136 140 144 156 155 150 146 141 141 138